Location: St. Louis
(38.6270°N, 90.1994°W)
Time: 22:09:19
(UTC-06:00)

ARIANE 6 FM1 Upper Stage - Visible Passes

Search period start: 07 December 2025 00:00
Search period end: 17 December 2025 00:00
Orbit: 522 x 612 km, 62.0° (Epoch: 07 December)

Date Brightness Start Highest point End Pass type
(mag) Time Alt. Az. Time Alt. Az. Time Alt. Az.
13 Dec 5.9 05:19:01 10° SE 05:21:03 13° ESE 05:23:04 10° E visible
14 Dec 5.3 05:18:14 10° SSE 05:21:19 21° ESE 05:24:21 10° ENE visible
15 Dec 4.4 05:17:57 10° S 05:21:36 32° ESE 05:25:11 10° NE visible
16 Dec 3.4 05:17:57 10° SSW 05:21:55 50° ESE 05:25:48 10° NE visible
